Location: Heisede
(52.2582°N, 9.8523°E)
Time: 09:50:02
(UTC+00:00)

Cosmos 381 Rocket - Pass Details

Date: 13 January 2026
Orbit: 956 x 993 km, 74.0° (Epoch: 19 February)

Event Time Altitude Azimuth Distance (km) Brightness Sun altitude
Exits shadow 04:34:48 11° 202° (SSW) 2,710 6.6 -25.1°
Maximum altitude 04:41:06 88° 114° (ESE) 1,001 4.5 -24.1°
Drops below altitude 10° 04:47:32 10° 26° (NNE) 2,763 7.1 -23.1°
Sets 04:50:06 0° 26° (NNE) 3,712 7.8 -22.7°
